This is the latest recevied weather packets stored in our database for station/object KB3HLL. If no packets are shown the sender has not sent any weather packets the latest 10 day(s).
| Time | Temp. | Humidity | Pressure | Rain* | Wind** | Luminosity | Snow |
|---|---|---|---|---|---|---|---|
| 1777416077 | 7.22° C | 100% | 1014.9 hPa | 0 mm | - | 24 W/m² | - |
| 1777415778 | 7.22° C | 99% | 1015.3 hPa | 0 mm | - | 25 W/m² | - |
| 1777415477 | 7.78° C | 99% | 1015.7 hPa | 0 mm | - | 23 W/m² | - |
| 1777415178 | 7.78° C | 98% | 1015.9 hPa | 0 mm | - | 33 W/m² | - |
| 1777414878 | 7.78° C | 97% | 1016.3 hPa | 0 mm | - | 46 W/m² | - |
| 1777414577 | 7.78° C | 97% | 1016.7 hPa | 0 mm | - | 46 W/m² | - |
| 1777414278 | 7.78° C | 95% | 1017.2 hPa | 0 mm | - | 55 W/m² | - |
| 1777413980 | 7.78° C | 95% | 1017.4 hPa | 0 mm | - | 53 W/m² | - |
| 1777413678 | 7.78° C | 94% | 1017.5 hPa | 0 mm | - | 41 W/m² | - |
| 1777413378 | 7.78° C | 94% | 1017.5 hPa | 0 mm | - | 46 W/m² | - |
| 1777413077 | 7.78° C | 94% | 1017.4 hPa | 0 mm | - | 52 W/m² | - |
| 1777412777 | 7.78° C | 94% | 1017.4 hPa | 0 mm | - | 49 W/m² | - |
| 1777412477 | 7.78° C | 94% | 1017.4 hPa | 0 mm | - | 42 W/m² | - |
| 1777412178 | 7.78° C | 94% | 1017.4 hPa | 0 mm | - | 51 W/m² | - |
| 1777411878 | 7.78° C | 94% | 1017.3 hPa | 0 mm | - | 59 W/m² | - |
| 1777411577 | 7.78° C | 94% | 1017.5 hPa | 0 mm | - | 51 W/m² | - |
| 1777411278 | 7.78° C | 94% | 1017.5 hPa | 0 mm | - | 56 W/m² | - |
| 1777410977 | 7.78° C | 93% | 1017.5 hPa | 0 mm | - | 67 W/m² | - |
| 1777410677 | 7.78° C | 94% | 1017.4 hPa | 0 mm | - | 59 W/m² | - |
| 1777410377 | 7.78° C | 94% | 1017.3 hPa | 0 mm | - | 70 W/m² | - |
| 1777410078 | 7.78° C | 94% | 1017.3 hPa | 0 mm | - | 73 W/m² | - |
| 1777409778 | 7.78° C | 94% | 1017.1 hPa | 0 mm | - | 85 W/m² | - |
| 1777409477 | 7.78° C | 94% | 1017.1 hPa | 0 mm | - | 101 W/m² | - |
| 1777409177 | 7.78° C | 94% | 1017.2 hPa | 0 mm | - | 116 W/m² | - |
| 1777408878 | 7.78° C | 94% | 1017.2 hPa | 0 mm | - | 150 W/m² | - |
* Rain latest hour (hover to see other rain measurements)
** Current wind speed in m/s (hover to see current wind gust speed)